Probability
13 10 6 0 6 19 19 13 13 6 10 10 6 0 0 0 6 23 58 97 97 97 90 77 77 71 74 74 68 58 61 74 71 71 65 68 58 55 52 58 61 52 52
10 3 13 13 3 10 13 13 13 3 0 6 6 0 0 0 3 6 10 90 100 100 97 87 84 84 74 77 74 68 68 65 68 71 65 58 48 48 45 48 45 45 39
3 3 0 6 3 3 6 10 10 10 3 0 3 0 0 0 0 6 10 3 48 94 97 97 90 87 87 81 74 71 71 71 68 74 68 61 52 39 42 42 42 39 35
3 3 6 6 3 0 6 10 6 6 0 3 3 0 0 0 0 0 10 10 0 3 81 97 100 94 87 87 84 77 71 74 77 71 68 52 58 48 42 42 35 32 35
0 0 6 3 3 3 0 0 3 6 0 0 3 3 0 0 0 0 0 0 0 3 3 58 94 94 97 87 90 87 81 71 77 68 61 52 45 48 48 35 32 29 32
0 3 3 3 6 3 3 0 0 3 3 0 0 0 0 0 0 0 0 0 0 3 3 3 26 55 90 97 97 87 81 77 71 68 55 52 52 39 39 39 32 32 29
3 6 3 3 3 3 0 0 0 6 3 0 0 0 0 0 0 0 0 0 0 0 0 3 3 0 23 87 90 97 84 77 68 65 58 55 52 45 39 29 32 26 26
3 3 3 3 3 10 6 6 3 3 6 3 0 0 0 0 0 0 0 3 0 0 0 0 0 0 0 0 13 84 94 87 84 65 61 65 61 55 45 32 26 29 26
3 6 6 6 6 6 6 3 6 6 0 0 0 0 0 0 0 0 0 0 0 0 0 0 0 3 0 0 0 10 52 65 81 71 65 61 58 55 55 45 32 26 23
3 6 6 6 6 6 13 10 10 3 3 0 0 0 0 0 0 0 0 0 0 0 0 0 0 0 0 3 0 0 3 19 65 55 55 48 45 48 42 42 35 29 23
3 3 3 6 6 6 10 10 6 3 0 0 0 0 0 0 0 0 0 0 0 0 0 0 0 3 3 6 3 0 0 0 19 58 55 52 42 35 39 32 32 23 19
0 3 3 0 0 3 3 6 6 3 3 0 0 0 0 0 0 0 0 0 0 0 0 0 0 0 0 0 0 0 0 0 0 32 55 52 39 39 42 35 35 26 16
0 0 0 0 0 0 0 10 6 6 0 0 0 0 0 0 0 0 0 0 0 0 0 0 0 0 0 0 0 0 0 0 0 0 6 19 32 35 35 29 29 26 26
0 0 0 0 0 0 3 6 10 3 3 0 0 0 0 0 0 0 0 0 0 0 0 0 0 0 0 3 0 0 0 0 0 0 0 0 6 13 29 29 29 26 13
0 0 0 0 3 0 6 6 6 6 6 3 0 0 0 0 0 0 0 0 0 0 0 0 0 0 0 0 0 0 0 0 0 0 0 0 0 0 3 10 13 13 13
0 0 0 0 0 0 0 3 6 3 3 3 0 0 0 0 0 0 0 0 0 0 0 0 0 0 0 0 0 0 0 0 0 0 0 0 0 0 0 0 0 0 0
0 0 0 0 0 0 0 0 3 3 0 0 0 0 0 0 0 0 0 0 0 0 0 0 0 0 0 0 0 0 0 0 0 0 0 0 0 0 0 0 0 0 0
0 0 0 0 0 0 0 0 0 3 3 3 0 0 0 0 0 0 0 0 0 0 0 0 0 0 0 0 0 0 0 0 0 0 0 0 0 0 0 0 0 0 0
0 0 0 0 0 0 0 0 0 0 0 0 0 0 0 0 0 0 0 0 0 0 0 0 0 0 0 0 0 0 0 0 0 0 0 0 0 0 0 0 0 0 0
0 0 0 0 0 0 0 0 0 0 0 0 0 0 0 0 0 0 0 0 0 0 0 0 0 0 0 0 0 0 0 0 0 0 0 0 0 0 0 0 0 0 0
0 0 0 0 0 0 0 0 0 0 0 0 0 0 0 0 0 0 0 0 0 0 0 0 0 0 0 0 0 0 0 0 0 0 0 0 0 0 0 0 0 0 0
0 0 0 0 0 0 0 0 0 0 0 0 0 0 0 0 0 0 0 0 0 0 0 0 0 0 0 0 0 0 0 0 0 0 0 0 0 0 0 0 0 0 0
0 0 0 0 0 0 0 0 0 0 0 0 0 0 0 0 0 0 0 0 0 0 0 0 0 0 0 0 0 0 0 0 0 0 0 0 0 0 0 0 0 0 0
0 0 0 0 0 0 0 0 0 0 0 0 0 0 0 0 0 0 0 0 0 0 0 0 0 0 0 0 0 0 0 0 0 0 0 0 0 0 0 0 0 0 0
0 0 0 0 0 0 0 0 0 0 0 0 0 0 0 0 0 0 0 0 0 0 0 0 0 0 0 0 0 0 0 0 0 0 0 0 0 0 0 0 0 0 0
0 0 0 0 0 0 0 0 0 0 0 0 0 0 0 0 0 0 0 0 0 0 0 0 0 0 0 0 0 0 0 0 0 0 0 0 0 0 0 0 0 0 0
Height
5833 5834 5837 5839 5841 5844 5846 5848 5851 5854 5856 5859 5862 5864 5867 5869 5871 5873 5875 5876 5878 5880 5881 5882 5883 5885 5886 5887 5888 5889 5891 5892 5893 5894 5895 5897 5898 5899 5901 5902 5904 5905 5907
5824 5826 5828 5831 5834 5836 5839 5841 5844 5847 5850 5853 5856 5859 5862 5865 5867 5870 5872 5873 5875 5877 5879 5880 5882 5883 5884 5886 5887 5889 5890 5891 5892 5893 5895 5896 5897 5898 5900 5901 5902 5904 5905
5815 5817 5819 5822 5825 5828 5832 5835 5838 5841 5844 5847 5850 5853 5856 5859 5862 5865 5868 5870 5872 5874 5876 5878 5879 5881 5883 5884 5886 5887 5889 5890 5891 5892 5894 5895 5896 5897 5898 5900 5901 5903 5904
5806 5809 5811 5814 5817 5820 5824 5827 5831 5834 5837 5840 5843 5847 5850 5854 5857 5860 5863 5866 5868 5871 5873 5875 5877 5879 5880 5882 5884 5885 5887 5889 5890 5891 5892 5894 5895 5896 5897 5899 5900 5901 5902
5798 5800 5803 5805 5808 5812 5815 5819 5823 5827 5830 5834 5837 5841 5844 5847 5851 5854 5858 5861 5863 5866 5869 5871 5873 5876 5878 5880 5882 5883 5885 5887 5888 5890 5891 5892 5893 5895 5896 5897 5898 5899 5900
5790 5792 5794 5797 5800 5804 5807 5811 5815 5819 5823 5827 5830 5834 5837 5841 5845 5849 5852 5855 5858 5862 5865 5867 5870 5872 5874 5877 5879 5881 5882 5884 5886 5887 5889 5890 5892 5893 5894 5895 5896 5897 5898
5783 5785 5787 5789 5792 5796 5799 5803 5807 5811 5815 5819 5823 5827 5830 5834 5838 5842 5846 5850 5853 5856 5860 5863 5866 5868 5871 5873 5875 5877 5879 5881 5883 5885 5886 5888 5889 5890 5892 5893 5894 5895 5895
5778 5779 5780 5782 5785 5788 5791 5795 5799 5802 5807 5811 5815 5820 5824 5828 5832 5835 5839 5843 5847 5850 5854 5857 5861 5863 5866 5869 5871 5873 5876 5878 5880 5882 5883 5885 5886 5888 5889 5890 5891 5892 5893
5773 5773 5774 5776 5778 5781 5784 5787 5790 5795 5799 5803 5808 5812 5816 5821 5825 5829 5832 5836 5839 5844 5848 5851 5855 5858 5861 5864 5867 5869 5871 5873 5876 5878 5879 5881 5883 5884 5885 5886 5887 5889 5889
5769 5769 5769 5770 5772 5774 5777 5779 5783 5787 5791 5795 5800 5804 5809 5813 5817 5822 5825 5829 5833 5837 5842 5845 5848 5851 5855 5858 5861 5864 5867 5869 5871 5873 5875 5877 5878 5880 5881 5882 5884 5885 5885
5766 5765 5765 5765 5766 5768 5770 5773 5776 5779 5783 5788 5792 5796 5801 5805 5809 5814 5818 5822 5826 5830 5834 5838 5841 5845 5849 5852 5855 5858 5861 5863 5866 5868 5870 5872 5874 5875 5877 5878 5879 5880 5881
5763 5761 5761 5761 5761 5762 5764 5766 5769 5772 5776 5780 5784 5788 5793 5797 5802 5806 5810 5814 5818 5823 5827 5831 5834 5838 5841 5845 5849 5852 5854 5856 5859 5862 5864 5866 5868 5870 5871 5873 5874 5875 5876
5760 5758 5757 5756 5756 5757 5758 5760 5763 5765 5769 5772 5776 5780 5785 5789 5794 5798 5802 5806 5811 5815 5819 5823 5827 5830 5833 5838 5841 5844 5847 5850 5853 5856 5858 5860 5862 5864 5866 5867 5868 5869 5870
5758 5756 5754 5753 5752 5753 5753 5755 5757 5759 5762 5765 5769 5773 5777 5782 5786 5790 5795 5799 5803 5807 5812 5816 5819 5823 5826 5830 5834 5837 5840 5843 5846 5849 5851 5853 5856 5857 5859 5861 5862 5863 5864
5756 5754 5751 5750 5749 5749 5749 5750 5752 5753 5755 5759 5762 5766 5770 5775 5779 5783 5788 5792 5796 5800 5804 5808 5811 5814 5818 5822 5826 5829 5832 5835 5838 5841 5844 5846 5849 5851 5852 5854 5855 5856 5857
5756 5753 5750 5748 5747 5746 5746 5747 5748 5749 5751 5754 5757 5760 5764 5768 5772 5777 5781 5785 5789 5793 5797 5801 5804 5807 5811 5814 5817 5820 5824 5827 5830 5833 5836 5839 5841 5843 5845 5846 5848 5849 5850
5756 5753 5750 5747 5746 5744 5744 5744 5745 5746 5748 5750 5752 5755 5758 5762 5766 5770 5774 5778 5782 5786 5790 5793 5796 5799 5803 5806 5809 5812 5816 5819 5822 5825 5828 5831 5833 5835 5837 5838 5840 5842 5843
5757 5754 5750 5747 5745 5744 5743 5742 5743 5743 5745 5746 5748 5751 5754 5757 5760 5764 5767 5771 5775 5778 5782 5785 5788 5792 5795 5798 5801 5804 5808 5811 5814 5817 5820 5822 5824 5827 5829 5830 5832 5833 5835
5759 5755 5751 5748 5745 5743 5742 5742 5741 5742 5743 5744 5745 5747 5749 5752 5755 5758 5761 5765 5768 5771 5775 5778 5781 5784 5787 5790 5793 5797 5800 5803 5806 5808 5811 5814 5816 5818 5820 5822 5823 5825 5826
5761 5757 5753 5749 5746 5744 5743 5742 5741 5741 5741 5742 5743 5744 5746 5748 5750 5753 5755 5758 5762 5765 5767 5770 5773 5776 5779 5782 5785 5789 5792 5795 5798 5800 5803 5805 5808 5810 5812 5814 5815 5817 5818
5764 5760 5756 5752 5748 5746 5744 5742 5741 5741 5740 5740 5741 5742 5743 5744 5745 5747 5750 5753 5755 5758 5760 5763 5765 5768 5771 5774 5777 5780 5783 5786 5789 5792 5795 5798 5800 5802 5804 5806 5807 5809 5810
5766 5762 5758 5754 5751 5748 5746 5743 5742 5741 5740 5740 5739 5739 5739 5740 5741 5743 5745 5747 5749 5751 5754 5755 5758 5760 5763 5766 5769 5772 5775 5779 5782 5785 5787 5790 5792 5794 5796 5798 5799 5801 5802
5769 5765 5761 5757 5753 5750 5748 5745 5743 5741 5740 5739 5738 5737 5737 5737 5738 5739 5740 5742 5743 5745 5747 5749 5751 5753 5756 5759 5762 5765 5768 5771 5774 5777 5779 5782 5784 5786 5788 5790 5791 5793 5794
5771 5767 5763 5759 5756 5753 5750 5747 5744 5742 5740 5738 5737 5736 5735 5735 5735 5736 5736 5738 5739 5740 5742 5743 5745 5747 5749 5751 5755 5758 5760 5763 5766 5769 5772 5774 5776 5779 5781 5782 5784 5785 5786
5773 5769 5765 5761 5758 5755 5751 5749 5746 5743 5741 5739 5737 5735 5734 5734 5733 5734 5734 5735 5735 5736 5737 5738 5739 5741 5743 5745 5748 5751 5754 5757 5759 5762 5765 5767 5769 5771 5773 5775 5776 5777 5779
5774 5770 5767 5763 5760 5756 5753 5750 5747 5744 5742 5739 5737 5735 5734 5733 5733 5732 5732 5732 5732 5733 5733 5734 5735 5737 5738 5740 5742 5745 5748 5750 5753 5755 5758 5760 5762 5764 5766 5768 5769 5770 5772
Wind_Speed
33 32 32 31 31 30 29 28 28 27 27 27 26 25 24 22 21 19 17 16 14 13 12 10 9 8 7 7 7 7 7 7 7 7 8 7 7 8 8 8 9 9 9
33 34 34 33 33 31 30 30 29 28 28 28 28 28 26 25 23 22 20 18 17 15 14 13 11 10 10 9 8 8 7 7 7 7 7 7 8 8 8 8 9 9 9
33 33 34 34 34 33 32 32 31 30 29 28 28 29 29 26 25 24 22 21 19 18 16 15 14 13 12 11 10 10 9 8 8 8 8 7 8 8 8 9 8 9 9
31 32 32 33 33 34 34 34 33 32 32 30 29 30 30 29 26 26 24 23 22 20 19 17 16 15 14 13 12 12 11 10 10 9 9 8 8 8 9 8 9 9 10
29 30 31 32 34 34 34 34 34 33 33 32 31 30 30 30 29 27 26 25 24 23 22 20 19 17 16 15 14 14 13 12 11 11 10 10 10 9 9 9 9 9 10
27 28 29 30 32 33 34 34 34 34 34 33 33 32 31 32 30 29 28 27 26 25 24 23 21 20 19 17 17 16 15 14 13 13 12 12 11 11 11 11 11 10 11
24 25 26 28 30 31 32 34 34 34 33 34 34 33 33 32 31 30 30 29 29 28 26 25 24 23 22 20 19 18 18 17 16 15 14 14 13 13 13 13 12 12 12
20 22 24 25 27 29 30 33 34 34 34 34 34 34 34 33 33 32 31 31 30 30 28 27 27 25 24 23 22 21 20 19 19 18 17 16 16 15 15 15 15 14 14
17 19 21 23 25 26 28 30 32 33 34 34 35 35 34 34 33 34 34 32 31 30 30 29 29 28 27 26 25 24 23 22 21 20 20 19 18 17 17 17 16 17 16
15 16 18 20 22 24 25 28 30 31 33 34 35 36 36 34 34 34 34 34 33 32 31 31 31 30 29 28 27 26 26 24 24 23 22 21 20 20 19 19 19 19 19
13 14 15 17 19 21 23 25 28 30 32 33 34 35 36 35 35 34 33 34 34 34 34 33 32 32 32 31 30 28 27 27 26 25 25 24 23 22 22 21 21 21 20
12 12 13 15 17 19 21 23 25 28 30 32 33 34 35 35 34 35 34 35 35 35 35 36 34 33 32 31 31 30 29 28 28 28 27 26 26 25 24 24 23 23 22
13 13 12 13 15 17 19 20 23 26 28 30 32 32 33 34 34 34 34 34 35 36 35 36 36 35 34 33 33 33 32 30 29 29 29 28 27 27 26 26 26 26 25
14 13 12 11 12 14 16 18 20 22 25 27 29 30 31 32 33 33 33 32 32 34 35 34 35 36 35 35 34 34 35 33 32 31 31 30 29 29 29 28 28 27 27
15 14 12 10 9 10 12 14 16 19 21 24 25 27 30 31 32 32 32 32 31 31 33 34 33 33 34 35 36 36 36 35 34 33 32 32 31 30 30 30 30 29 29
17 15 12 10 9 8 9 11 13 14 16 19 22 24 26 28 30 31 32 32 32 31 31 31 32 33 34 34 35 35 35 35 34 34 33 33 32 31 31 31 31 30 30
19 17 14 12 9 7 7 8 10 12 14 17 19 21 23 25 27 29 30 31 31 31 31 31 32 32 33 33 34 35 35 34 34 34 34 33 34 34 33 33 32 32 31
21 19 16 13 11 8 6 6 7 9 11 14 16 18 20 22 24 26 28 29 30 30 30 30 30 31 32 34 33 33 34 34 33 34 33 33 33 33 33 33 33 33 32
22 20 18 16 13 10 7 5 5 6 8 10 12 15 17 19 22 24 26 27 28 29 30 30 30 30 30 31 31 31 31 31 32 32 32 32 32 32 32 32 33 33 33
23 22 20 18 15 11 9 6 5 4 5 6 8 11 14 16 19 21 23 25 26 27 28 29 30 30 30 31 31 31 31 31 31 31 31 31 31 32 32 31 32 32 32
24 22 21 20 17 14 11 8 7 5 4 5 7 9 12 13 16 18 20 22 24 25 27 28 28 30 31 31 30 30 29 29 30 30 30 30 30 30 30 30 30 30 30
24 23 21 20 18 16 14 11 8 7 6 5 6 8 10 11 13 15 17 19 20 22 24 26 27 28 29 29 29 29 29 30 29 30 31 30 29 30 30 29 29 29 29
24 23 22 20 19 17 16 14 11 9 8 7 7 7 8 9 11 13 15 17 18 19 20 22 24 25 26 28 27 27 28 29 29 30 30 30 29 29 29 30 30 30 30
24 23 22 21 19 18 17 16 14 12 10 8 8 7 6 7 8 10 12 13 14 15 17 19 21 22 23 24 25 26 27 27 28 29 29 29 29 29 30 30 30 29 29
23 23 22 20 19 19 18 17 15 13 12 10 9 7 6 6 6 8 9 11 13 14 15 17 18 20 21 22 23 24 25 25 26 27 27 28 28 28 29 29 28 27 27
22 22 21 20 19 19 18 17 16 15 13 11 10 8 7 6 6 6 8 9 10 11 13 14 15 17 18 20 21 22 23 23 23 24 24 24 25 26 25 26 25 25 25
Wind_Direction
261 260 259 258 254 252 251 250 248 244 243 241 238 236 237 235 233 230 230 231 229 226 223 220 216 212 210 209 204 198 192 190 190 191 193 197 197 197 200 205 210 214 217
260 258 256 256 254 251 250 251 250 246 242 240 239 236 236 236 233 231 230 231 230 227 224 222 220 217 215 214 212 209 204 199 197 197 199 202 204 204 207 212 215 219 224
260 258 255 253 253 251 249 249 249 247 244 244 242 239 237 235 234 230 229 231 231 229 226 225 223 222 219 218 216 216 214 210 209 206 206 205 205 208 210 214 217 222 225
260 257 255 252 251 250 249 248 247 247 245 244 242 239 237 235 235 231 229 231 231 230 229 227 225 225 225 223 220 220 219 218 217 216 216 213 212 215 219 221 226 230 233
260 257 255 253 251 249 247 247 245 245 244 243 241 239 238 236 235 233 231 231 230 231 231 229 227 227 228 227 226 225 224 224 223 222 222 222 223 227 230 233 235 238 241
260 258 255 253 251 249 247 246 245 244 243 242 241 239 238 235 235 235 234 232 231 231 231 231 230 230 230 230 230 230 228 228 228 227 228 229 232 234 237 240 242 247 250
263 259 257 254 251 248 246 244 243 243 242 241 240 239 238 237 236 235 234 234 234 232 232 232 233 233 232 231 231 232 232 232 232 232 233 234 236 239 242 243 247 251 254
268 263 259 256 251 248 245 243 242 241 241 241 240 239 238 237 236 236 235 233 234 233 233 233 233 234 233 232 233 234 234 235 235 235 236 238 240 243 245 248 251 253 256
276 268 262 258 253 249 246 244 241 240 240 241 240 240 240 238 238 237 237 235 235 233 233 235 235 235 235 236 236 236 236 237 237 238 239 240 242 245 247 250 253 256 258
284 276 267 260 256 251 247 243 241 240 239 239 239 241 241 239 239 237 238 238 238 236 234 236 237 235 235 237 238 238 238 238 239 240 242 243 245 248 250 252 255 257 259
296 286 275 267 261 256 251 246 242 241 240 239 239 240 240 240 240 239 239 239 240 239 237 238 238 237 237 237 238 238 238 239 241 242 243 245 247 249 252 254 256 258 260
313 298 284 274 265 258 253 249 245 243 241 240 239 239 238 239 239 239 241 241 240 240 239 239 241 240 237 237 237 238 239 241 242 243 245 247 248 250 252 255 257 258 261
327 312 297 282 270 262 255 251 248 245 243 241 240 239 238 239 239 238 240 240 240 240 240 239 240 239 237 237 237 238 240 241 242 243 245 248 249 250 252 255 257 260 262
340 330 317 298 280 268 259 254 251 247 243 241 240 239 238 238 239 237 238 239 241 241 239 239 240 238 238 238 238 239 240 241 243 246 247 248 249 251 253 255 258 260 262
352 346 335 323 300 280 268 260 255 249 244 241 240 239 238 237 238 238 238 239 240 241 240 241 240 240 241 242 241 240 240 242 244 246 247 249 250 251 253 254 257 259 262
2 359 351 340 326 303 280 267 257 250 246 242 239 238 238 237 237 238 239 240 241 242 242 242 242 243 243 243 242 241 242 243 244 245 247 248 249 252 254 254 256 258 261
9 5 1 354 342 326 300 279 265 255 250 244 241 237 236 236 236 237 239 240 241 242 242 242 241 243 244 243 242 240 241 242 244 246 248 248 249 252 254 255 256 258 259
14 10 6 2 354 343 323 299 278 263 256 247 241 236 236 236 236 237 238 239 240 241 241 242 242 243 244 244 243 242 243 243 245 247 248 249 250 251 252 255 256 258 259
16 14 13 9 5 0 347 326 301 276 262 251 245 240 239 239 238 237 238 239 240 241 242 243 243 244 244 244 243 243 244 245 246 248 249 251 251 251 253 256 257 257 258
18 17 18 18 15 12 6 356 340 312 282 263 252 246 244 243 240 238 238 239 241 242 243 244 245 245 244 245 245 245 245 244 245 248 249 250 251 253 255 257 257 258 260
18 18 19 20 20 19 17 9 358 346 324 292 270 259 251 249 244 240 240 240 243 246 246 247 246 245 245 245 246 245 243 243 244 245 247 249 250 251 253 255 256 258 261
17 18 18 20 22 22 19 14 7 358 340 316 295 277 260 254 248 245 244 243 245 248 249 249 248 246 244 245 246 245 245 245 244 243 246 247 249 250 252 254 256 259 260
16 17 17 19 20 21 19 14 8 2 352 340 323 302 277 261 253 249 248 248 248 251 251 250 250 249 246 245 247 247 247 247 246 244 244 245 248 250 251 253 256 258 260
13 14 15 16 17 17 17 16 11 6 1 351 339 327 303 278 265 255 251 251 250 250 251 249 248 247 245 246 245 246 246 245 245 245 245 245 248 251 252 253 255 258 260
9 10 11 12 13 13 13 14 12 9 4 358 349 339 324 301 284 271 260 255 253 250 252 251 249 247 244 243 243 245 247 246 245 243 245 248 250 251 251 252 255 256 258
4 6 8 8 8 9 10 11 12 11 7 3 359 351 339 320 299 289 275 268 263 258 255 253 250 246 243 242 242 243 245 243 242 240 242 245 246 247 249 252 253 254 257